datetime,flow
2019-12-13,213.0
2019-12-14,224.0
2019-12-15,230.0
2019-12-16,225.0
2019-12-17,209.0
2019-12-18,187.0
2019-12-19,187.0
2019-12-20,183.0
2019-12-21,183.0
2019-12-22,182.0
2019-12-23,198.0
2019-12-24,199.0
2019-12-25,214.0
2019-12-26,214.0
2019-12-27,208.0
2019-12-28,212.0
2019-12-29,200.0
2019-12-30,182.0
2019-12-31,177.0
2020-01-01,164.0
2020-01-02,177.0
2020-01-03,174.0
2020-01-04,175.0
2020-01-05,172.0
2020-01-06,176.0
2020-01-07,171.0
2020-01-08,179.0
2020-01-09,190.0
2020-01-10,195.0
2020-01-11,186.0
2020-01-12,189.0
2020-01-13,179.0
2020-01-14,182.0
2020-01-15,187.0
2020-01-16,191.0
2020-01-17,203.0
2020-01-18,191.0
2020-01-19,178.0
2020-01-20,175.0
2020-01-21,194.0
2020-01-22,199.0
2020-01-23,197.0
2020-01-24,188.0
2020-01-25,187.0
2020-01-26,181.0
2020-01-27,191.0
2020-01-28,194.0
2020-01-29,188.0
2020-01-30,188.0
2020-01-31,187.0
2020-02-01,171.0
2020-02-02,175.0
2020-02-03,197.0
2020-02-04,180.0
2020-02-05,171.0
2020-02-06,160.0
2020-02-07,176.0
2020-02-08,190.0
2020-02-09,198.0
2020-02-10,194.0
2020-02-11,190.0
2020-02-12,185.0
2020-02-13,176.0
2020-02-14,173.0
2020-02-15,167.0
2020-02-16,179.0
2020-02-17,167.0
2020-02-18,170.0
2020-02-19,164.0
2020-02-20,170.0
2020-02-21,165.0
2020-02-22,164.0
2020-02-23,209.0
2020-02-24,207.0
2020-02-25,185.0
2020-02-26,164.0
2020-02-27,160.0
2020-02-28,155.0
2020-02-29,173.0
2020-03-01,168.0
2020-03-02,176.0
2020-03-03,165.0
2020-03-04,161.0
2020-03-05,164.0
2020-03-06,163.0
2020-03-07,170.0
2020-03-08,179.0
2020-03-09,192.0
2020-03-10,196.0
2020-03-11,197.0
2020-03-12,206.0
2020-03-13,217.0
2020-03-14,233.0
2020-03-15,222.0
2020-03-16,210.0
2020-03-17,201.0
2020-03-18,205.0
2020-03-19,259.0
2020-03-20,273.0
2020-03-21,264.0
2020-03-22,258.0
2020-03-23,243.0
2020-03-24,230.0
2020-03-25,225.0
2020-03-26,227.0
2020-03-27,237.0
2020-03-28,239.0
2020-03-29,231.0
2020-03-30,213.0
2020-03-31,209.0
2020-04-01,189.0
2020-04-02,183.0
2020-04-03,186.0
2020-04-04,188.0
2020-04-05,185.0
2020-04-06,184.0
2020-04-07,186.0
2020-04-08,212.0
2020-04-09,227.0
2020-04-10,287.0
2020-04-11,328.0
2020-04-12,336.0
2020-04-13,370.0
2020-04-14,328.0
2020-04-15,283.0
2020-04-16,264.0
2020-04-17,247.0
2020-04-18,224.0
2020-04-19,225.0
2020-04-20,228.0
2020-04-21,230.0
2020-04-22,275.0
2020-04-23,268.0
2020-04-24,238.0
2020-04-25,271.0
2020-04-26,323.0
2020-04-27,424.0
2020-04-28,629.0
2020-04-29,887.0
2020-04-30,1210.0
2020-05-01,1390.0
2020-05-02,1630.0
2020-05-03,1750.0
2020-05-04,1790.0
2020-05-05,1790.0
2020-05-06,1670.0
2020-05-07,1660.0
2020-05-08,1720.0
2020-05-09,1650.0
2020-05-10,1570.0
2020-05-11,1540.0
2020-05-12,1540.0
2020-05-13,1510.0
2020-05-14,1520.0
2020-05-15,1540.0
2020-05-16,1510.0
2020-05-17,1530.0
2020-05-18,1850.0
2020-05-19,2150.0
2020-05-20,2220.0
2020-05-21,2030.0
2020-05-22,1760.0
2020-05-23,1650.0
2020-05-24,1570.0
2020-05-25,1420.0
2020-05-26,1280.0
2020-05-27,1360.0
2020-05-28,1630.0
2020-05-29,2010.0
2020-05-30,2270.0
2020-05-31,2450.0
2020-06-01,2910.0
2020-06-02,2480.0
2020-06-03,2350.0
2020-06-04,2180.0
2020-06-05,2050.0
2020-06-06,2260.0
2020-06-07,3770.0
2020-06-08,2380.0
2020-06-09,1730.0
2020-06-10,1390.0
2020-06-11,1120.0
2020-06-12,1050.0
2020-06-13,1100.0
2020-06-14,1360.0
2020-06-15,1500.0
2020-06-16,1280.0
2020-06-17,1140.0
2020-06-18,1030.0
2020-06-19,935.0
2020-06-20,825.0
2020-06-21,697.0
2020-06-22,645.0
2020-06-23,612.0
2020-06-24,564.0
2020-06-25,526.0
2020-06-26,504.0
2020-06-27,453.0
2020-06-28,455.0
2020-06-29,417.0
2020-06-30,374.0
2020-07-01,342.0
2020-07-02,302.0
2020-07-03,292.0
2020-07-04,281.0
2020-07-05,280.0
2020-07-06,309.0
2020-07-07,282.0
2020-07-08,235.0
2020-07-09,214.0
2020-07-10,201.0
2020-07-11,178.0
2020-07-12,161.0
2020-07-13,154.0
2020-07-14,146.0
2020-07-15,135.0
2020-07-16,130.0
2020-07-17,136.0
2020-07-18,184.0
2020-07-19,209.0
2020-07-20,188.0
2020-07-21,175.0
2020-07-22,159.0
2020-07-23,156.0
2020-07-24,176.0
2020-07-25,294.0
2020-07-26,1050.0
2020-07-27,1020.0
2020-07-28,1050.0
2020-07-29,852.0
2020-07-30,606.0
2020-07-31,455.0
2020-08-01,360.0
2020-08-02,320.0
2020-08-03,320.0
2020-08-04,271.0
2020-08-05,244.0
2020-08-06,211.0
2020-08-07,174.0
2020-08-08,149.0
2020-08-09,130.0
2020-08-10,115.0
2020-08-11,105.0
2020-08-12,97.8
2020-08-13,81.8
2020-08-14,64.4
2020-08-15,62.4
2020-08-16,65.1
2020-08-17,52.1
2020-08-18,43.6
2020-08-19,48.2
2020-08-20,50.0
2020-08-21,45.6
2020-08-22,38.0
2020-08-23,38.6
2020-08-24,34.1
2020-08-25,24.7
2020-08-26,23.2
2020-08-27,23.6
2020-08-28,28.1
2020-08-29,35.5
2020-08-30,38.6
2020-08-31,40.9
2020-09-01,43.6
2020-09-02,42.7
2020-09-03,37.7
2020-09-04,37.7
2020-09-05,37.5
2020-09-06,39.9
2020-09-07,38.5
2020-09-08,35.6
2020-09-09,80.8
2020-09-10,139.0
2020-09-11,154.0
2020-09-12,145.0
2020-09-13,140.0
2020-09-14,129.0
2020-09-15,110.0
2020-09-16,92.8
2020-09-17,84.1
2020-09-18,70.7
2020-09-19,61.4
2020-09-20,58.0
2020-09-21,53.9
2020-09-22,55.2
2020-09-23,56.8
2020-09-24,58.9
2020-09-25,50.1
2020-09-26,40.7
2020-09-27,36.9
2020-09-28,33.3
2020-09-29,35.1
2020-09-30,36.0
2020-10-01,34.3
2020-10-02,39.7
2020-10-03,41.2
2020-10-04,44.4
2020-10-05,42.9
2020-10-06,48.8
2020-10-07,39.7
2020-10-08,41.5
2020-10-09,42.5
2020-10-10,42.6
2020-10-11,43.0
2020-10-12,49.2
2020-10-13,50.9
2020-10-14,59.2
2020-10-15,57.3
2020-10-16,59.1
2020-10-17,55.0
2020-10-18,58.3
2020-10-19,72.0
2020-10-20,77.2
2020-10-21,82.8
2020-10-22,75.8
2020-10-23,76.3
2020-10-24,84.4
2020-10-25,105.0
2020-10-26,205.0
2020-10-27,234.0
2020-10-28,230.0
2020-10-29,221.0
2020-10-30,225.0
2020-10-31,232.0
2020-11-01,229.0
2020-11-02,225.0
2020-11-03,230.0
2020-11-04,231.0
2020-11-05,229.0
2020-11-06,232.0
2020-11-07,238.0
2020-11-08,275.0
2020-11-09,279.0
2020-11-10,254.0
2020-11-11,223.0
2020-11-12,202.0
2020-11-13,197.0
2020-11-14,194.0
2020-11-15,192.0
2020-11-16,192.0
2020-11-17,188.0
2020-11-18,192.0
2020-11-19,186.0
2020-11-20,185.0
2020-11-21,184.0
2020-11-22,183.0
2020-11-23,184.0
2020-11-24,183.0
2020-11-25,183.0
2020-11-26,181.0
2020-11-27,172.0
2020-11-28,171.0
2020-11-29,169.0
2020-11-30,165.0
2020-12-01,161.0
2020-12-02,162.0
2020-12-03,158.0
2020-12-04,156.0
2020-12-05,161.0
2020-12-06,155.0
2020-12-07,161.0
2020-12-08,159.0
2020-12-09,156.0
2020-12-10,156.0
2020-12-11,163.0
2020-12-12,165.0
2020-12-13,158.0
2020-12-14,157.0
2020-12-15,159.0
2020-12-16,149.0
2020-12-17,158.0
2020-12-18,170.0
2020-12-19,160.0
2020-12-20,167.0
2020-12-21,161.0
2020-12-22,157.0
2020-12-23,171.0
2020-12-24,170.0
2020-12-25,169.0
2020-12-26,164.0
2020-12-27,165.0
2020-12-28,175.0
2020-12-29,177.0
2020-12-30,156.0
2020-12-31,167.0
2021-01-01,159.0
2021-01-02,158.0
2021-01-03,168.0
2021-01-04,166.0
2021-01-05,177.0
2021-01-06,167.0
2021-01-07,176.0
2021-01-08,168.0
2021-01-09,176.0
2021-01-10,174.0
2021-01-11,165.0
2021-01-12,160.0
2021-01-13,164.0
2021-01-14,157.0
2021-01-15,164.0
2021-01-16,171.0
2021-01-17,172.0
2021-01-18,163.0
2021-01-19,184.0
2021-01-20,172.0
2021-01-21,173.0
2021-01-22,172.0
2021-01-23,169.0
2021-01-24,180.0
2021-01-25,186.0
2021-01-26,176.0
2021-01-27,153.0
2021-01-28,151.0
2021-01-29,162.0
2021-01-30,171.0
2021-01-31,169.0
2021-02-01,153.0
2021-02-02,149.0
2021-02-03,168.0
2021-02-04,182.0
2021-02-05,171.0
2021-02-06,161.0
2021-02-07,154.0
2021-02-08,157.0
2021-02-09,148.0
2021-02-10,150.0
2021-02-11,159.0
2021-02-12,156.0
2021-02-13,161.0
2021-02-14,186.0
2021-02-15,174.0
2021-02-16,169.0
2021-02-17,165.0
2021-02-18,164.0
2021-02-19,144.0
2021-02-20,148.0
2021-02-21,164.0
2021-02-22,163.0
2021-02-23,161.0
2021-02-24,163.0
2021-02-25,162.0
2021-02-26,169.0
2021-02-27,162.0
2021-02-28,164.0
2021-03-01,162.0
2021-03-02,146.0
2021-03-03,145.0
2021-03-04,172.0
2021-03-05,185.0
2021-03-06,181.0
2021-03-07,175.0
2021-03-08,175.0
2021-03-09,177.0
2021-03-10,178.0
2021-03-11,176.0
2021-03-12,172.0
2021-03-13,171.0
2021-03-14,173.0
2021-03-15,170.0
2021-03-16,169.0
2021-03-17,174.0
2021-03-18,175.0
2021-03-19,173.0
2021-03-20,172.0
2021-03-21,159.0
2021-03-22,156.0
2021-03-23,163.0
2021-03-24,177.0
2021-03-25,184.0
2021-03-26,183.0
2021-03-27,185.0
2021-03-28,178.0
2021-03-29,170.0
2021-03-30,159.0
2021-03-31,171.0
2021-04-01,167.0
2021-04-02,164.0
2021-04-03,158.0
2021-04-04,169.0
2021-04-05,194.0
2021-04-06,227.0
2021-04-07,249.0
2021-04-08,235.0
2021-04-09,225.0
2021-04-10,210.0
2021-04-11,200.0
2021-04-12,205.0
2021-04-13,222.0
2021-04-14,242.0
2021-04-15,223.0
2021-04-16,230.0
2021-04-17,203.0
2021-04-18,174.0
2021-04-19,148.0
2021-04-20,124.0
2021-04-21,109.0
2021-04-22,110.0
2021-04-23,110.0
2021-04-24,105.0
2021-04-25,95.5
2021-04-26,90.9
2021-04-27,129.0
2021-04-28,154.0
2021-04-29,126.0
2021-04-30,100.0
2021-05-01,122.0
2021-05-02,246.0
2021-05-03,442.0
2021-05-04,448.0
2021-05-05,308.0
2021-05-06,290.0
2021-05-07,499.0
2021-05-08,813.0
2021-05-09,828.0
2021-05-10,628.0
2021-05-11,496.0
2021-05-12,363.0
2021-05-13,366.0
2021-05-14,480.0
2021-05-15,606.0
2021-05-16,759.0
2021-05-17,994.0
2021-05-18,1080.0
2021-05-19,927.0
2021-05-20,800.0
2021-05-21,1030.0
2021-05-22,1510.0
2021-05-23,1420.0
2021-05-24,1300.0
2021-05-25,1210.0
2021-05-26,1330.0
2021-05-27,1350.0
2021-05-28,1310.0
2021-05-29,1430.0
2021-05-30,1500.0
2021-05-31,1570.0
2021-06-01,1500.0
2021-06-02,1290.0
2021-06-03,1430.0
2021-06-04,1820.0
2021-06-05,2500.0
2021-06-06,2770.0
2021-06-07,2570.0
2021-06-08,2270.0
2021-06-09,2010.0
2021-06-10,1800.0
2021-06-11,1670.0
2021-06-12,1670.0
2021-06-13,1580.0
2021-06-14,1450.0
2021-06-15,1350.0
2021-06-16,1270.0
2021-06-17,1220.0
2021-06-18,1130.0
2021-06-19,989.0
2021-06-20,918.0
2021-06-21,893.0
2021-06-22,792.0
2021-06-23,706.0
2021-06-24,651.0
2021-06-25,628.0
2021-06-26,641.0
2021-06-27,583.0
2021-06-28,539.0
2021-06-29,405.0
2021-06-30,505.0
2021-07-01,626.0
2021-07-02,580.0
2021-07-03,528.0
2021-07-04,490.0
2021-07-05,439.0
2021-07-06,430.0
2021-07-07,441.0
2021-07-08,385.0
2021-07-09,345.0
2021-07-10,308.0
2021-07-11,271.0
2021-07-12,235.0
2021-07-13,257.0
2021-07-14,271.0
2021-07-15,377.0
2021-07-16,320.0
2021-07-17,265.0
2021-07-18,250.0
2021-07-19,248.0
2021-07-20,247.0
2021-07-21,237.0
2021-07-22,321.0
2021-07-23,327.0
2021-07-24,306.0
2021-07-25,582.0
2021-07-26,857.0
2021-07-27,1090.0
2021-07-28,1720.0
2021-07-29,900.0
2021-07-30,698.0
2021-07-31,752.0
2021-08-01,753.0
2021-08-02,704.0
2021-08-03,642.0
2021-08-04,597.0
2021-08-05,505.0
2021-08-06,416.0
2021-08-07,361.0
2021-08-08,310.0
2021-08-09,261.0
2021-08-10,216.0
2021-08-11,160.0
2021-08-12,140.0
2021-08-13,136.0
2021-08-14,133.0
2021-08-15,147.0
2021-08-16,258.0
2021-08-17,175.0
2021-08-18,145.0
2021-08-19,145.0
2021-08-20,183.0
2021-08-21,289.0
2021-08-22,260.0
2021-08-23,212.0
2021-08-24,177.0
2021-08-25,143.0
2021-08-26,125.0
2021-08-27,107.0
2021-08-28,94.2
2021-08-29,85.5
2021-08-30,75.4
2021-08-31,66.0
2021-09-01,63.5
2021-09-02,366.0
2021-09-03,267.0
2021-09-04,239.0
2021-09-05,214.0
2021-09-06,192.0
2021-09-07,157.0
2021-09-08,103.0
2021-09-09,69.9
2021-09-10,62.5
2021-09-11,64.6
2021-09-12,64.1
2021-09-13,62.0
2021-09-14,60.6
2021-09-15,59.3
2021-09-16,60.4
2021-09-17,61.2
2021-09-18,60.5
2021-09-19,60.3
2021-09-20,59.2
2021-09-21,53.0
2021-09-22,51.3
2021-09-23,51.3
2021-09-24,52.2
2021-09-25,54.0
2021-09-26,57.0
2021-09-27,62.1
2021-09-28,69.1
2021-09-29,77.3
2021-09-30,103.0
2021-10-01,180.0
2021-10-02,202.0
2021-10-03,179.0
2021-10-04,170.0
2021-10-05,163.0
2021-10-06,183.0
2021-10-07,195.0
2021-10-08,196.0
2021-10-09,207.0
2021-10-10,214.0
2021-10-11,275.0
2021-10-12,287.0
2021-10-13,307.0
2021-10-14,289.0
2021-10-15,284.0
2021-10-16,272.0
2021-10-17,265.0
2021-10-18,265.0
2021-10-19,273.0
2021-10-20,283.0
2021-10-21,280.0
2021-10-22,266.0
2021-10-23,261.0
2021-10-24,255.0
2021-10-25,255.0
2021-10-26,272.0
2021-10-27,274.0
2021-10-28,286.0
2021-10-29,283.0
2021-10-30,285.0
2021-10-31,298.0
2021-11-01,307.0
2021-11-02,309.0
2021-11-03,303.0
2021-11-04,296.0
2021-11-05,291.0
2021-11-06,285.0
2021-11-07,279.0
2021-11-08,275.0
2021-11-09,266.0
2021-11-10,265.0
2021-11-11,263.0
2021-11-12,260.0
2021-11-13,258.0
2021-11-14,250.0
2021-11-15,249.0
2021-11-16,246.0
2021-11-17,244.0
2021-11-18,245.0
2021-11-19,237.0
2021-11-20,227.0
2021-11-21,230.0
2021-11-22,228.0
2021-11-23,219.0
2021-11-24,228.0
2021-11-25,224.0
2021-11-26,219.0
2021-11-27,209.0
2021-11-28,215.0
2021-11-29,216.0
2021-11-30,209.0
2021-12-01,206.0
2021-12-02,203.0
2021-12-03,201.0
2021-12-04,198.0
2021-12-05,196.0
2021-12-06,192.0
2021-12-07,186.0
2021-12-08,186.0
2021-12-09,188.0
2021-12-10,227.0
2021-12-11,195.0
2021-12-12,166.0
2021-12-13,159.0
2021-12-14,179.0
2021-12-15,189.0
2021-12-16,188.0
2021-12-17,179.0
2021-12-18,166.0
2021-12-19,166.0
2021-12-20,168.0
2021-12-21,164.0
2021-12-22,166.0
2021-12-23,154.0
2021-12-24,222.0
2021-12-25,312.0
2021-12-26,213.0
2021-12-27,192.0
2021-12-28,193.0
2021-12-29,202.0
2021-12-30,204.0
2021-12-31,203.0
2022-01-01,208.0
2022-01-02,190.0
2022-01-03,176.0
2022-01-04,179.0
2022-01-05,177.0
2022-01-06,196.0
2022-01-07,197.0
2022-01-08,196.0
2022-01-09,190.0
2022-01-10,185.0
2022-01-11,165.0
2022-01-12,153.0
2022-01-13,160.0
2022-01-14,176.0
2022-01-15,174.0
2022-01-16,167.0
2022-01-17,166.0
2022-01-18,166.0
2022-01-19,175.0
2022-01-20,179.0
2022-01-21,174.0
2022-01-22,168.0
2022-01-23,173.0
2022-01-24,169.0
2022-01-25,163.0
2022-01-26,172.0
2022-01-27,174.0
2022-01-28,168.0
2022-01-29,158.0
2022-01-30,148.0
2022-01-31,161.0
2022-02-01,168.0
2022-02-02,179.0
2022-02-03,182.0
2022-02-04,166.0
2022-02-05,159.0
2022-02-06,167.0
2022-02-07,181.0
2022-02-08,170.0
2022-02-09,159.0
2022-02-10,163.0
2022-02-11,162.0
2022-02-12,161.0
2022-02-13,163.0
2022-02-14,158.0
2022-02-15,157.0
2022-02-16,163.0
2022-02-17,171.0
2022-02-18,166.0
2022-02-19,160.0
2022-02-20,151.0
2022-02-21,154.0
2022-02-22,157.0
2022-02-23,160.0
2022-02-24,157.0
2022-02-25,145.0
2022-02-26,149.0
2022-02-27,151.0
2022-02-28,147.0
2022-03-01,157.0
2022-03-02,167.0
2022-03-03,176.0
2022-03-04,181.0
2022-03-05,194.0
2022-03-06,208.0
2022-03-07,197.0
2022-03-08,182.0
2022-03-09,173.0
2022-03-10,173.0
2022-03-11,180.0
2022-03-12,166.0
2022-03-13,158.0
2022-03-14,162.0
2022-03-15,170.0
2022-03-16,171.0
2022-03-17,171.0
2022-03-18,178.0
2022-03-19,176.0
2022-03-20,172.0
2022-03-21,175.0
2022-03-22,180.0
2022-03-23,176.0
2022-03-24,179.0
2022-03-25,179.0
2022-03-26,194.0
2022-03-27,224.0
2022-03-28,295.0
2022-03-29,394.0
2022-03-30,411.0
2022-03-31,366.0
2022-04-01,332.0
2022-04-02,311.0
2022-04-03,283.0
2022-04-04,280.0
2022-04-05,303.0
2022-04-06,337.0
2022-04-07,364.0
2022-04-08,317.0
2022-04-09,311.0
2022-04-10,364.0
2022-04-11,387.0
2022-04-12,379.0
2022-04-13,389.0
2022-04-14,324.0
2022-04-15,266.0
2022-04-16,227.0
2022-04-17,210.0
2022-04-18,212.0
2022-04-19,275.0
2022-04-20,430.0
2022-04-21,596.0
2022-04-22,912.0
2022-04-23,1020.0
2022-04-24,678.0
2022-04-25,506.0
2022-04-26,400.0
2022-04-27,358.0
2022-04-28,399.0
2022-04-29,515.0
2022-04-30,736.0
2022-05-01,963.0
2022-05-02,1160.0
2022-05-03,1230.0
2022-05-04,1310.0
2022-05-05,1020.0
2022-05-06,989.0
2022-05-07,1630.0
2022-05-08,2180.0
2022-05-09,2180.0
2022-05-10,1980.0
2022-05-11,1990.0
2022-05-12,1890.0
2022-05-13,1770.0
2022-05-14,1750.0
2022-05-15,1990.0
2022-05-16,2270.0
2022-05-17,2200.0
2022-05-18,2160.0
2022-05-19,2150.0
2022-05-20,2180.0
2022-05-21,1820.0
2022-05-22,1400.0
2022-05-23,1150.0
2022-05-24,1000.0
2022-05-25,872.0
2022-05-26,818.0
2022-05-27,1030.0
2022-05-28,1340.0
2022-05-29,1370.0
2022-05-30,1190.0
2022-05-31,982.0
2022-06-01,791.0
2022-06-02,846.0
2022-06-03,952.0
2022-06-04,985.0
2022-06-05,900.0
2022-06-06,850.0
2022-06-07,846.0
2022-06-08,858.0
2022-06-09,872.0
2022-06-10,846.0
2022-06-11,830.0
2022-06-12,789.0
2022-06-13,716.0
2022-06-14,645.0
2022-06-15,578.0
2022-06-16,513.0
2022-06-17,451.0
2022-06-18,444.0
2022-06-19,692.0
2022-06-20,1450.0
2022-06-21,1090.0
2022-06-22,745.0
2022-06-23,621.0
2022-06-24,632.0
2022-06-25,551.0
2022-06-26,532.0
2022-06-27,933.0
2022-06-28,1040.0
2022-06-29,731.0
2022-06-30,618.0
2022-07-01,560.0
2022-07-02,522.0
2022-07-03,494.0
2022-07-04,535.0
2022-07-05,505.0
2022-07-06,472.0
2022-07-07,554.0
2022-07-08,461.0
2022-07-09,392.0
2022-07-10,325.0
2022-07-11,290.0
2022-07-12,275.0
2022-07-13,245.0
2022-07-14,209.0
2022-07-15,169.0
2022-07-16,157.0
2022-07-17,140.0
2022-07-18,143.0
2022-07-19,131.0
2022-07-20,146.0
2022-07-21,139.0
2022-07-22,121.0
2022-07-23,104.0
2022-07-24,91.3
2022-07-25,98.2
2022-07-26,216.0
2022-07-27,256.0
2022-07-28,242.0
2022-07-29,353.0
2022-07-30,623.0
2022-07-31,1100.0
2022-08-01,803.0
2022-08-02,690.0
2022-08-03,562.0
2022-08-04,487.0
2022-08-05,498.0
2022-08-06,463.0
2022-08-07,777.0
2022-08-08,419.0
2022-08-09,338.0
2022-08-10,292.0
2022-08-11,249.0
2022-08-12,200.0
2022-08-13,182.0
2022-08-14,176.0
2022-08-15,200.0
2022-08-16,284.0
2022-08-17,241.0
2022-08-18,218.0
2022-08-19,208.0
2022-08-20,208.0
2022-08-21,243.0
2022-08-22,267.0
2022-08-23,248.0
2022-08-24,232.0
2022-08-25,209.0
2022-08-26,235.0
2022-08-27,368.0
2022-08-28,480.0
2022-08-29,410.0
2022-08-30,380.0
2022-08-31,330.0
2022-09-01,292.0
2022-09-02,265.0
2022-09-03,229.0
2022-09-04,204.0
2022-09-05,182.0
2022-09-06,159.0
2022-09-07,145.0
2022-09-08,132.0
2022-09-09,132.0
2022-09-10,128.0
2022-09-11,136.0
2022-09-12,120.0
2022-09-13,126.0
2022-09-14,143.0
2022-09-15,192.0
2022-09-16,206.0
2022-09-17,180.0
2022-09-18,158.0
2022-09-19,157.0
2022-09-20,154.0
2022-09-21,183.0
2022-09-22,744.0
2022-09-23,585.0
2022-09-24,548.0
2022-09-25,421.0
2022-09-26,334.0
2022-09-27,280.0
2022-09-28,261.0
2022-09-29,242.0
2022-09-30,232.0
2022-10-01,226.0
2022-10-02,262.0
2022-10-03,383.0
2022-10-04,503.0
2022-10-05,503.0
2022-10-06,495.0
2022-10-07,448.0
2022-10-08,414.0
2022-10-09,412.0
2022-10-10,371.0
2022-10-11,324.0
2022-10-12,311.0
2022-10-13,289.0
2022-10-14,270.0
2022-10-15,260.0
2022-10-16,246.0
2022-10-17,247.0
2022-10-18,247.0
2022-10-19,240.0
2022-10-20,232.0
2022-10-21,222.0
2022-10-22,224.0
2022-10-23,235.0
2022-10-24,
2022-10-25,273.0
2022-10-26,264.0
2022-10-27,272.0
2022-10-28,266.0
2022-10-29,263.0
2022-10-30,262.0
2022-10-31,281.0
2022-11-01,286.0
2022-11-02,289.0
2022-11-03,358.0
2022-11-04,352.0
2022-11-05,294.0
2022-11-06,270.0
2022-11-07,273.0
2022-11-08,274.0
2022-11-09,282.0
2022-11-10,279.0
2022-11-11,267.0
2022-11-12,259.0
2022-11-13,253.0
2022-11-14,266.0
2022-11-15,259.0
2022-11-16,250.0
2022-11-17,239.0
2022-11-18,227.0
2022-11-19,228.0
2022-11-20,230.0
2022-11-21,221.0
2022-11-22,221.0
2022-11-23,220.0
2022-11-24,221.0
2022-11-25,219.0
2022-11-26,214.0
2022-11-27,216.0
2022-11-28,218.0
2022-11-29,219.0
2022-11-30,224.0
2022-12-01,209.0
2022-12-02,221.0
2022-12-03,227.0
2022-12-04,224.0
2022-12-05,227.0
2022-12-06,228.0
2022-12-07,226.0
2022-12-08,228.0
2022-12-09,222.0
2022-12-10,210.0
2022-12-11,202.0
2022-12-12,184.0
2022-12-13,
2022-12-14,210.0
2022-12-15,
2022-12-16,
2022-12-17,
2022-12-18,
2022-12-19,
2022-12-20,
2022-12-21,
2022-12-22,189.0
2022-12-23,209.0
2022-12-24,203.0
2022-12-25,197.0
2022-12-26,199.0
2022-12-27,197.0
2022-12-28,245.0
2022-12-29,238.0
2022-12-30,224.0
2022-12-31,230.0
2023-01-01,249.0
2023-01-02,274.0
2023-01-03,245.0
2023-01-04,215.0
2023-01-05,209.0
2023-01-06,210.0
2023-01-07,201.0
2023-01-08,197.0
2023-01-09,192.0
2023-01-10,196.0
2023-01-11,204.0
2023-01-12,200.0
2023-01-13,189.0
2023-01-14,181.0
2023-01-15,216.0
2023-01-16,233.0
2023-01-17,238.0
2023-01-18,225.0
2023-01-19,205.0
2023-01-20,189.0
2023-01-21,190.0
2023-01-22,178.0
2023-01-23,189.0
2023-01-24,183.0
2023-01-25,191.0
2023-01-26,174.0
2023-01-27,158.0
2023-01-28,163.0
2023-01-29,183.0
2023-01-30,191.0
2023-01-31,196.0
2023-02-01,199.0
2023-02-02,188.0
2023-02-03,177.0
2023-02-04,182.0
2023-02-05,188.0
2023-02-06,186.0
2023-02-07,191.0
2023-02-08,176.0
2023-02-09,167.0
2023-02-10,185.0
2023-02-11,173.0
2023-02-12,177.0
2023-02-13,194.0
2023-02-14,213.0
2023-02-15,209.0
2023-02-16,209.0
2023-02-17,182.0
2023-02-18,170.0
2023-02-19,185.0
2023-02-20,206.0
2023-02-21,212.0
2023-02-22,225.0
2023-02-23,228.0
2023-02-24,199.0
2023-02-25,203.0
2023-02-26,
2023-02-27,214.0
2023-02-28,202.0
2023-03-01,203.0
2023-03-02,208.0
2023-03-03,207.0
2023-03-04,208.0
2023-03-05,204.0
2023-03-06,204.0
2023-03-07,213.0
2023-03-08,221.0
2023-03-09,229.0
2023-03-10,234.0
2023-03-11,281.0
2023-03-12,437.0
2023-03-13,419.0
2023-03-14,402.0
2023-03-15,437.0
2023-03-16,898.0
2023-03-17,625.0
2023-03-18,385.0
2023-03-19,340.0
2023-03-20,336.0
2023-03-21,399.0
2023-03-22,599.0
2023-03-23,732.0
2023-03-24,412.0
2023-03-25,369.0
2023-03-26,337.0
2023-03-27,310.0
2023-03-28,295.0
2023-03-29,284.0
2023-03-30,294.0
2023-03-31,302.0
2023-04-01,290.0
2023-04-02,299.0
2023-04-03,323.0
2023-04-04,377.0
2023-04-05,377.0
2023-04-06,341.0
2023-04-07,319.0
2023-04-08,344.0
2023-04-09,424.0
2023-04-10,531.0
2023-04-11,848.0
2023-04-12,1390.0
2023-04-13,1840.0
2023-04-14,2000.0
2023-04-15,1830.0
2023-04-16,1450.0
2023-04-17,1640.0
2023-04-18,2160.0
2023-04-19,2490.0
2023-04-20,2110.0
2023-04-21,1850.0
2023-04-22,1840.0
2023-04-23,2020.0
2023-04-24,2290.0
2023-04-25,2210.0
2023-04-26,1810.0
2023-04-27,1810.0
2023-04-28,2110.0
2023-04-29,2280.0
2023-04-30,2770.0
2023-05-01,3410.0
2023-05-02,3800.0
2023-05-03,3910.0
2023-05-04,4000.0
2023-05-05,3950.0
2023-05-06,3250.0
2023-05-07,2860.0
2023-05-08,2710.0
2023-05-09,2880.0
2023-05-10,3440.0
2023-05-11,3410.0
2023-05-12,3120.0
2023-05-13,2960.0
2023-05-14,3090.0
2023-05-15,3430.0
2023-05-16,3850.0
2023-05-17,4420.0
2023-05-18,4570.0
2023-05-19,4570.0
2023-05-20,4430.0
2023-05-21,4230.0
2023-05-22,4030.0
2023-05-23,3810.0
2023-05-24,3840.0
2023-05-25,4100.0
2023-05-26,4460.0
2023-05-27,4550.0
2023-05-28,4370.0
2023-05-29,4230.0
2023-05-30,4380.0
2023-05-31,4440.0
2023-06-01,4140.0
2023-06-02,3560.0
2023-06-03,2990.0
2023-06-04,2780.0
2023-06-05,3000.0
2023-06-06,3410.0
2023-06-07,4100.0
2023-06-08,3980.0
2023-06-09,3700.0
2023-06-10,3660.0
2023-06-11,3460.0
2023-06-12,3350.0
2023-06-13,3200.0
2023-06-14,2790.0
2023-06-15,2490.0
2023-06-16,2370.0
2023-06-17,2480.0
2023-06-18,2450.0
2023-06-19,2590.0
2023-06-20,3010.0
2023-06-21,3310.0
2023-06-22,3430.0
2023-06-23,3480.0
2023-06-24,3130.0
2023-06-25,2800.0
2023-06-26,2740.0
2023-06-27,2720.0
2023-06-28,2850.0
2023-06-29,2650.0
2023-06-30,2380.0
2023-07-01,2140.0
2023-07-02,2100.0
2023-07-03,2070.0
2023-07-04,2030.0
2023-07-05,1900.0
2023-07-06,1860.0
2023-07-07,1720.0
2023-07-08,1610.0
2023-07-09,1560.0
2023-07-10,1460.0
2023-07-11,1360.0
2023-07-12,1270.0
2023-07-13,1290.0
2023-07-14,1150.0
2023-07-15,1040.0
2023-07-16,1200.0
2023-07-17,1100.0
2023-07-18,
2023-07-19,
2023-07-20,521.0
2023-07-21,507.0
2023-07-22,467.0
2023-07-23,433.0
2023-07-24,390.0
2023-07-25,351.0
2023-07-26,336.0
2023-07-27,324.0
2023-07-28,305.0
2023-07-29,301.0
2023-07-30,296.0
2023-07-31,301.0
2023-08-01,313.0
2023-08-02,336.0
2023-08-03,326.0
2023-08-04,303.0
2023-08-05,273.0
2023-08-06,251.0
2023-08-07,239.0
2023-08-08,220.0
2023-08-09,204.0
2023-08-10,185.0
2023-08-11,181.0
2023-08-12,180.0
2023-08-13,193.0
2023-08-14,213.0
2023-08-15,213.0
2023-08-16,263.0
2023-08-17,250.0
2023-08-18,233.0
2023-08-19,229.0
2023-08-20,222.0
2023-08-21,206.0
2023-08-22,183.0
2023-08-23,173.0
2023-08-24,202.0
2023-08-25,279.0
2023-08-26,308.0
2023-08-27,309.0
2023-08-28,288.0
2023-08-29,258.0
2023-08-30,226.0
2023-08-31,195.0
2023-09-01,178.0
2023-09-02,163.0
2023-09-03,159.0
2023-09-04,160.0
2023-09-05,151.0
2023-09-06,143.0
2023-09-07,130.0
2023-09-08,128.0
2023-09-09,124.0
2023-09-10,114.0
2023-09-11,116.0
2023-09-12,134.0
2023-09-13,220.0
2023-09-14,253.0
2023-09-15,306.0
2023-09-16,337.0
2023-09-17,373.0
2023-09-18,332.0
2023-09-19,346.0
2023-09-20,348.0
2023-09-21,312.0
2023-09-22,275.0
2023-09-23,256.0
2023-09-24,252.0
2023-09-25,232.0
2023-09-26,216.0
2023-09-27,198.0
2023-09-28,189.0
2023-09-29,195.0
2023-09-30,179.0
2023-10-01,178.0
2023-10-02,194.0
2023-10-03,198.0
2023-10-04,217.0
2023-10-05,214.0
2023-10-06,214.0
2023-10-07,188.0
2023-10-08,182.0
2023-10-09,176.0
2023-10-10,174.0
2023-10-11,169.0
2023-10-12,173.0
2023-10-13,183.0
2023-10-14,179.0
2023-10-15,188.0
2023-10-16,197.0
2023-10-17,198.0
2023-10-18,193.0
2023-10-19,183.0